Index of /20260428/WXO-DD/model_rdps/10km/12/046
Name Last modified Size Description
Parent Directory -
20260428T12Z_MSC_RDPS_AbsoluteVorticity_IsbL-0250_RLatLon0.09_PT046H.grib2 2026-04-28 14:52 624K
20260428T12Z_MSC_RDPS_AbsoluteVorticity_IsbL-0500_RLatLon0.09_PT046H.grib2 2026-04-28 14:52 567K
20260428T12Z_MSC_RDPS_AbsoluteVorticity_IsbL-0700_RLatLon0.09_PT046H.grib2 2026-04-28 14:52 621K
20260428T12Z_MSC_RDPS_AbsoluteVorticity_IsbL-0850_RLatLon0.09_PT046H.grib2 2026-04-28 14:52 771K
20260428T12Z_MSC_RDPS_AirTemp_AGL-120m_RLatLon0.09_PT046H.grib2 2026-04-28 14:52 391K
20260428T12Z_MSC_RDPS_AirTemp_AGL-2m_RLatLon0.09_PT046H.grib2 2026-04-28 14:52 635K
20260428T12Z_MSC_RDPS_AirTemp_AGL-40m_RLatLon0.09_PT046H.grib2 2026-04-28 14:52 393K
20260428T12Z_MSC_RDPS_AirTemp_AGL-80m_RLatLon0.09_PT046H.grib2 2026-04-28 14:52 383K
20260428T12Z_MSC_RDPS_AirTemp_IsbL-0001_RLatLon0.09_PT046H.grib2 2026-04-28 14:52 302K
20260428T12Z_MSC_RDPS_AirTemp_IsbL-0005_RLatLon0.09_PT046H.grib2 2026-04-28 14:52 293K
20260428T12Z_MSC_RDPS_AirTemp_IsbL-0010_RLatLon0.09_PT046H.grib2 2026-04-28 14:52 305K
20260428T12Z_MSC_RDPS_AirTemp_IsbL-0020_RLatLon0.09_PT046H.grib2 2026-04-28 14:52 318K
20260428T12Z_MSC_RDPS_AirTemp_IsbL-0030_RLatLon0.09_PT046H.grib2 2026-04-28 14:52 343K
20260428T12Z_MSC_RDPS_AirTemp_IsbL-0050_RLatLon0.09_PT046H.grib2 2026-04-28 14:52 317K
20260428T12Z_MSC_RDPS_AirTemp_IsbL-0100_RLatLon0.09_PT046H.grib2 2026-04-28 14:52 431K
20260428T12Z_MSC_RDPS_AirTemp_IsbL-0150_RLatLon0.09_PT046H.grib2 2026-04-28 14:52 429K
20260428T12Z_MSC_RDPS_AirTemp_IsbL-0175_RLatLon0.09_PT046H.grib2 2026-04-28 14:52 416K
20260428T12Z_MSC_RDPS_AirTemp_IsbL-0200_RLatLon0.09_PT046H.grib2 2026-04-28 14:52 418K
20260428T12Z_MSC_RDPS_AirTemp_IsbL-0225_RLatLon0.09_PT046H.grib2 2026-04-28 14:52 420K
20260428T12Z_MSC_RDPS_AirTemp_IsbL-0250_RLatLon0.09_PT046H.grib2 2026-04-28 14:52 430K
20260428T12Z_MSC_RDPS_AirTemp_IsbL-0275_RLatLon0.09_PT046H.grib2 2026-04-28 14:52 409K
20260428T12Z_MSC_RDPS_AirTemp_IsbL-0300_RLatLon0.09_PT046H.grib2 2026-04-28 14:52 414K
20260428T12Z_MSC_RDPS_AirTemp_IsbL-0350_RLatLon0.09_PT046H.grib2 2026-04-28 14:52 426K
20260428T12Z_MSC_RDPS_AirTemp_IsbL-0400_RLatLon0.09_PT046H.grib2 2026-04-28 14:52 427K
20260428T12Z_MSC_RDPS_AirTemp_IsbL-0450_RLatLon0.09_PT046H.grib2 2026-04-28 14:52 433K
20260428T12Z_MSC_RDPS_AirTemp_IsbL-0500_RLatLon0.09_PT046H.grib2 2026-04-28 14:52 408K
20260428T12Z_MSC_RDPS_AirTemp_IsbL-0550_RLatLon0.09_PT046H.grib2 2026-04-28 14:52 426K
20260428T12Z_MSC_RDPS_AirTemp_IsbL-0600_RLatLon0.09_PT046H.grib2 2026-04-28 14:52 446K
20260428T12Z_MSC_RDPS_AirTemp_IsbL-0650_RLatLon0.09_PT046H.grib2 2026-04-28 14:52 461K
20260428T12Z_MSC_RDPS_AirTemp_IsbL-0700_RLatLon0.09_PT046H.grib2 2026-04-28 14:52 484K
20260428T12Z_MSC_RDPS_AirTemp_IsbL-0750_RLatLon0.09_PT046H.grib2 2026-04-28 14:52 406K
20260428T12Z_MSC_RDPS_AirTemp_IsbL-0800_RLatLon0.09_PT046H.grib2 2026-04-28 14:52 446K
20260428T12Z_MSC_RDPS_AirTemp_IsbL-0850_RLatLon0.09_PT046H.grib2 2026-04-28 14:52 499K
20260428T12Z_MSC_RDPS_AirTemp_IsbL-0875_RLatLon0.09_PT046H.grib2 2026-04-28 14:52 520K
20260428T12Z_MSC_RDPS_AirTemp_IsbL-0900_RLatLon0.09_PT046H.grib2 2026-04-28 14:52 527K
20260428T12Z_MSC_RDPS_AirTemp_IsbL-0925_RLatLon0.09_PT046H.grib2 2026-04-28 14:52 524K
20260428T12Z_MSC_RDPS_AirTemp_IsbL-0950_RLatLon0.09_PT046H.grib2 2026-04-28 14:52 526K
20260428T12Z_MSC_RDPS_AirTemp_IsbL-0970_RLatLon0.09_PT046H.grib2 2026-04-28 14:52 517K
20260428T12Z_MSC_RDPS_AirTemp_IsbL-0985_RLatLon0.09_PT046H.grib2 2026-04-28 14:52 504K
20260428T12Z_MSC_RDPS_AirTemp_IsbL-1000_RLatLon0.09_PT046H.grib2 2026-04-28 14:52 487K
20260428T12Z_MSC_RDPS_AirTemp_IsbL-1015_RLatLon0.09_PT046H.grib2 2026-04-28 14:52 486K
20260428T12Z_MSC_RDPS_Albedo_Sfc_RLatLon0.09_PT046H.grib2 2026-04-28 14:52 160K
20260428T12Z_MSC_RDPS_CAPE_Sfc_RLatLon0.09_PT046H.grib2 2026-04-28 14:52 1.6M
20260428T12Z_MSC_RDPS_CIN_Sfc_RLatLon0.09_PT046H.grib2 2026-04-28 14:52 1.1M
20260428T12Z_MSC_RDPS_CloudWater_EAtm_RLatLon0.09_PT046H.grib2 2026-04-28 14:52 218K
20260428T12Z_MSC_RDPS_ConvectivePrecip-Accum_Sfc_RLatLon0.09_PT046H.grib2 2026-04-28 14:52 1.0M
20260428T12Z_MSC_RDPS_DewPointDepression_AGL-2m_RLatLon0.09_PT046H.grib2 2026-04-28 14:52 390K
20260428T12Z_MSC_RDPS_DewPointDepression_IsbL-0001_RLatLon0.09_PT046H.grib2 2026-04-28 14:52 193
20260428T12Z_MSC_RDPS_DewPointDepression_IsbL-0005_RLatLon0.09_PT046H.grib2 2026-04-28 14:52 193
20260428T12Z_MSC_RDPS_DewPointDepression_IsbL-0010_RLatLon0.09_PT046H.grib2 2026-04-28 14:52 193
20260428T12Z_MSC_RDPS_DewPointDepression_IsbL-0020_RLatLon0.09_PT046H.grib2 2026-04-28 14:52 193
20260428T12Z_MSC_RDPS_DewPointDepression_IsbL-0030_RLatLon0.09_PT046H.grib2 2026-04-28 14:52 193
20260428T12Z_MSC_RDPS_DewPointDepression_IsbL-0050_RLatLon0.09_PT046H.grib2 2026-04-28 14:52 84K
20260428T12Z_MSC_RDPS_DewPointDepression_IsbL-0100_RLatLon0.09_PT046H.grib2 2026-04-28 14:52 130K
20260428T12Z_MSC_RDPS_DewPointDepression_IsbL-0150_RLatLon0.09_PT046H.grib2 2026-04-28 14:52 148K
20260428T12Z_MSC_RDPS_DewPointDepression_IsbL-0175_RLatLon0.09_PT046H.grib2 2026-04-28 14:52 179K
20260428T12Z_MSC_RDPS_DewPointDepression_IsbL-0200_RLatLon0.09_PT046H.grib2 2026-04-28 14:52 216K
20260428T12Z_MSC_RDPS_DewPointDepression_IsbL-0225_RLatLon0.09_PT046H.grib2 2026-04-28 14:52 263K
20260428T12Z_MSC_RDPS_DewPointDepression_IsbL-0250_RLatLon0.09_PT046H.grib2 2026-04-28 14:52 302K
20260428T12Z_MSC_RDPS_DewPointDepression_IsbL-0275_RLatLon0.09_PT046H.grib2 2026-04-28 14:52 307K
20260428T12Z_MSC_RDPS_DewPointDepression_IsbL-0300_RLatLon0.09_PT046H.grib2 2026-04-28 14:52 328K
20260428T12Z_MSC_RDPS_DewPointDepression_IsbL-0350_RLatLon0.09_PT046H.grib2 2026-04-28 14:52 333K
20260428T12Z_MSC_RDPS_DewPointDepression_IsbL-0400_RLatLon0.09_PT046H.grib2 2026-04-28 14:52 338K
20260428T12Z_MSC_RDPS_DewPointDepression_IsbL-0450_RLatLon0.09_PT046H.grib2 2026-04-28 14:52 342K
20260428T12Z_MSC_RDPS_DewPointDepression_IsbL-0500_RLatLon0.09_PT046H.grib2 2026-04-28 14:52 348K
20260428T12Z_MSC_RDPS_DewPointDepression_IsbL-0550_RLatLon0.09_PT046H.grib2 2026-04-28 14:52 361K
20260428T12Z_MSC_RDPS_DewPointDepression_IsbL-0600_RLatLon0.09_PT046H.grib2 2026-04-28 14:52 379K
20260428T12Z_MSC_RDPS_DewPointDepression_IsbL-0650_RLatLon0.09_PT046H.grib2 2026-04-28 14:52 388K
20260428T12Z_MSC_RDPS_DewPointDepression_IsbL-0700_RLatLon0.09_PT046H.grib2 2026-04-28 14:52 394K
20260428T12Z_MSC_RDPS_DewPointDepression_IsbL-0750_RLatLon0.09_PT046H.grib2 2026-04-28 14:52 408K
20260428T12Z_MSC_RDPS_DewPointDepression_IsbL-0800_RLatLon0.09_PT046H.grib2 2026-04-28 14:52 434K
20260428T12Z_MSC_RDPS_DewPointDepression_IsbL-0850_RLatLon0.09_PT046H.grib2 2026-04-28 14:52 465K
20260428T12Z_MSC_RDPS_DewPointDepression_IsbL-0875_RLatLon0.09_PT046H.grib2 2026-04-28 14:52 469K
20260428T12Z_MSC_RDPS_DewPointDepression_IsbL-0900_RLatLon0.09_PT046H.grib2 2026-04-28 14:52 458K
20260428T12Z_MSC_RDPS_DewPointDepression_IsbL-0925_RLatLon0.09_PT046H.grib2 2026-04-28 14:52 445K
20260428T12Z_MSC_RDPS_DewPointDepression_IsbL-0950_RLatLon0.09_PT046H.grib2 2026-04-28 14:52 440K
20260428T12Z_MSC_RDPS_DewPointDepression_IsbL-0970_RLatLon0.09_PT046H.grib2 2026-04-28 14:52 433K
20260428T12Z_MSC_RDPS_DewPointDepression_IsbL-0985_RLatLon0.09_PT046H.grib2 2026-04-28 14:52 426K
20260428T12Z_MSC_RDPS_DewPointDepression_IsbL-1000_RLatLon0.09_PT046H.grib2 2026-04-28 14:52 421K
20260428T12Z_MSC_RDPS_DewPointDepression_IsbL-1015_RLatLon0.09_PT046H.grib2 2026-04-28 14:52 413K
20260428T12Z_MSC_RDPS_DewPoint_AGL-2m_RLatLon0.09_PT046H.grib2 2026-04-28 14:52 309K
20260428T12Z_MSC_RDPS_DownwardLongwaveRadiationFlux-Accum_Sfc_RLatLon0.09_PT046H.grib2 2026-04-28 14:52 361K
20260428T12Z_MSC_RDPS_DownwardShortwaveRadiationFlux-Accum_NTAtm_RLatLon0.09_PT046H.grib2 2026-04-28 14:52 120K
20260428T12Z_MSC_RDPS_DownwardShortwaveRadiationFlux-Accum_Sfc_RLatLon0.09_PT046H.grib2 2026-04-28 14:52 551K
20260428T12Z_MSC_RDPS_FreezingRain-Accum1h_Sfc_RLatLon0.09_PT046H.grib2 2026-04-28 14:52 46K
20260428T12Z_MSC_RDPS_FreezingRain-Accum_Sfc_RLatLon0.09_PT046H.grib2 2026-04-28 14:52 172K
20260428T12Z_MSC_RDPS_GeopotentialHeight_IsbL-0001_RLatLon0.09_PT046H.grib2 2026-04-28 14:52 239K
20260428T12Z_MSC_RDPS_GeopotentialHeight_IsbL-0005_RLatLon0.09_PT046H.grib2 2026-04-28 14:52 337K
20260428T12Z_MSC_RDPS_GeopotentialHeight_IsbL-0010_RLatLon0.09_PT046H.grib2 2026-04-28 14:52 306K
20260428T12Z_MSC_RDPS_GeopotentialHeight_IsbL-0020_RLatLon0.09_PT046H.grib2 2026-04-28 14:52 304K
20260428T12Z_MSC_RDPS_GeopotentialHeight_IsbL-0030_RLatLon0.09_PT046H.grib2 2026-04-28 14:52 306K
20260428T12Z_MSC_RDPS_GeopotentialHeight_IsbL-0050_RLatLon0.09_PT046H.grib2 2026-04-28 14:52 308K
20260428T12Z_MSC_RDPS_GeopotentialHeight_IsbL-0100_RLatLon0.09_PT046H.grib2 2026-04-28 14:52 286K
20260428T12Z_MSC_RDPS_GeopotentialHeight_IsbL-0150_RLatLon0.09_PT046H.grib2 2026-04-28 14:52 229K
20260428T12Z_MSC_RDPS_GeopotentialHeight_IsbL-0175_RLatLon0.09_PT046H.grib2 2026-04-28 14:52 232K
20260428T12Z_MSC_RDPS_GeopotentialHeight_IsbL-0200_RLatLon0.09_PT046H.grib2 2026-04-28 14:52 264K
20260428T12Z_MSC_RDPS_GeopotentialHeight_IsbL-0225_RLatLon0.09_PT046H.grib2 2026-04-28 14:52 266K
20260428T12Z_MSC_RDPS_GeopotentialHeight_IsbL-0250_RLatLon0.09_PT046H.grib2 2026-04-28 14:52 267K
20260428T12Z_MSC_RDPS_GeopotentialHeight_IsbL-0275_RLatLon0.09_PT046H.grib2 2026-04-28 14:52 266K
20260428T12Z_MSC_RDPS_GeopotentialHeight_IsbL-0300_RLatLon0.09_PT046H.grib2 2026-04-28 14:52 266K
20260428T12Z_MSC_RDPS_GeopotentialHeight_IsbL-0350_RLatLon0.09_PT046H.grib2 2026-04-28 14:52 231K
20260428T12Z_MSC_RDPS_GeopotentialHeight_IsbL-0400_RLatLon0.09_PT046H.grib2 2026-04-28 14:52 228K
20260428T12Z_MSC_RDPS_GeopotentialHeight_IsbL-0450_RLatLon0.09_PT046H.grib2 2026-04-28 14:52 295K
20260428T12Z_MSC_RDPS_GeopotentialHeight_IsbL-0500_RLatLon0.09_PT046H.grib2 2026-04-28 14:52 290K
20260428T12Z_MSC_RDPS_GeopotentialHeight_IsbL-0550_RLatLon0.09_PT046H.grib2 2026-04-28 14:52 286K
20260428T12Z_MSC_RDPS_GeopotentialHeight_IsbL-0600_RLatLon0.09_PT046H.grib2 2026-04-28 14:52 254K
20260428T12Z_MSC_RDPS_GeopotentialHeight_IsbL-0650_RLatLon0.09_PT046H.grib2 2026-04-28 14:52 252K
20260428T12Z_MSC_RDPS_GeopotentialHeight_IsbL-0700_RLatLon0.09_PT046H.grib2 2026-04-28 14:52 333K
20260428T12Z_MSC_RDPS_GeopotentialHeight_IsbL-0750_RLatLon0.09_PT046H.grib2 2026-04-28 14:52 334K
20260428T12Z_MSC_RDPS_GeopotentialHeight_IsbL-0800_RLatLon0.09_PT046H.grib2 2026-04-28 14:52 342K
20260428T12Z_MSC_RDPS_GeopotentialHeight_IsbL-0850_RLatLon0.09_PT046H.grib2 2026-04-28 14:52 384K
20260428T12Z_MSC_RDPS_GeopotentialHeight_IsbL-0875_RLatLon0.09_PT046H.grib2 2026-04-28 14:52 388K
20260428T12Z_MSC_RDPS_GeopotentialHeight_IsbL-0900_RLatLon0.09_PT046H.grib2 2026-04-28 14:52 392K
20260428T12Z_MSC_RDPS_GeopotentialHeight_IsbL-0925_RLatLon0.09_PT046H.grib2 2026-04-28 14:52 396K
20260428T12Z_MSC_RDPS_GeopotentialHeight_IsbL-0950_RLatLon0.09_PT046H.grib2 2026-04-28 14:52 400K
20260428T12Z_MSC_RDPS_GeopotentialHeight_IsbL-0970_RLatLon0.09_PT046H.grib2 2026-04-28 14:52 405K
20260428T12Z_MSC_RDPS_GeopotentialHeight_IsbL-0985_RLatLon0.09_PT046H.grib2 2026-04-28 14:52 414K
20260428T12Z_MSC_RDPS_GeopotentialHeight_IsbL-1000_RLatLon0.09_PT046H.grib2 2026-04-28 14:52 425K
20260428T12Z_MSC_RDPS_GeopotentialHeight_IsbL-1015_RLatLon0.09_PT046H.grib2 2026-04-28 14:52 441K
20260428T12Z_MSC_RDPS_Humidex_Sfc_RLatLon0.09_PT046H.grib2 2026-04-28 14:52 2.4M
20260428T12Z_MSC_RDPS_IcePellets-Accum1h_Sfc_RLatLon0.09_PT046H.grib2 2026-04-28 14:52 1.9K
20260428T12Z_MSC_RDPS_IcePellets-Accum_Sfc_RLatLon0.09_PT046H.grib2 2026-04-28 14:52 26K
20260428T12Z_MSC_RDPS_KIndex_Sfc_RLatLon0.09_PT046H.grib2 2026-04-28 14:52 2.5M
20260428T12Z_MSC_RDPS_LatentHeatNetFlux_Sfc_RLatLon0.09_PT046H.grib2 2026-04-28 14:52 307K
20260428T12Z_MSC_RDPS_LiftedIndex-MU-VT_IsbL-0500_RLatLon0.09_PT046H.grib2 2026-04-28 14:52 2.4M
20260428T12Z_MSC_RDPS_NetLongwaveRadiationFlux-Accum_Sfc_RLatLon0.09_PT046H.grib2 2026-04-28 14:52 529K
20260428T12Z_MSC_RDPS_NetShortwaveRadiationFlux-Accum_Sfc_RLatLon0.09_PT046H.grib2 2026-04-28 14:52 552K
20260428T12Z_MSC_RDPS_PlanetaryBoundaryLayerHeight_Sfc_RLatLon0.09_PT046H.grib2 2026-04-28 14:52 1.1M
20260428T12Z_MSC_RDPS_Precip-Accum1h_Sfc_RLatLon0.09_PT046H.grib2 2026-04-28 14:52 1.2M
20260428T12Z_MSC_RDPS_Precip-Accum_Sfc_RLatLon0.09_PT046H.grib2 2026-04-28 14:52 2.0M
20260428T12Z_MSC_RDPS_PrecipRate_Sfc_RLatLon0.09_PT046H.grib2 2026-04-28 14:52 172K
20260428T12Z_MSC_RDPS_PrecipType-Instant_Sfc_RLatLon0.09_PT046H.grib2 2026-04-28 14:52 564K
20260428T12Z_MSC_RDPS_Pressure-Trend3h_Sfc_RLatLon0.09_PT046H.grib2 2026-04-28 14:52 1.2M
20260428T12Z_MSC_RDPS_Pressure_MSL_RLatLon0.09_PT046H.grib2 2026-04-28 14:52 291K
20260428T12Z_MSC_RDPS_Pressure_PVU-1.5_RLatLon0.09_PT046H.grib2 2026-04-28 14:52 2.3M
20260428T12Z_MSC_RDPS_Pressure_PVU-1_RLatLon0.09_PT046H.grib2 2026-04-28 14:52 2.4M
20260428T12Z_MSC_RDPS_Pressure_PVU-2_RLatLon0.09_PT046H.grib2 2026-04-28 14:52 2.3M
20260428T12Z_MSC_RDPS_Pressure_Sfc_RLatLon0.09_PT046H.grib2 2026-04-28 14:52 500K
20260428T12Z_MSC_RDPS_RadiativeTemp_Sfc_RLatLon0.09_PT046H.grib2 2026-04-28 14:52 307K
20260428T12Z_MSC_RDPS_Rain-Accum1h_Sfc_RLatLon0.09_PT046H.grib2 2026-04-28 14:52 580K
20260428T12Z_MSC_RDPS_Rain-Accum_Sfc_RLatLon0.09_PT046H.grib2 2026-04-28 14:52 1.6M
20260428T12Z_MSC_RDPS_RelativeHumidity_AGL-2m_RLatLon0.09_PT046H.grib2 2026-04-28 14:52 1.0M
20260428T12Z_MSC_RDPS_RelativeHumidity_IsbL-0010_RLatLon0.09_PT046H.grib2 2026-04-28 14:52 641K
20260428T12Z_MSC_RDPS_RelativeHumidity_IsbL-0020_RLatLon0.09_PT046H.grib2 2026-04-28 14:52 684K
20260428T12Z_MSC_RDPS_RelativeHumidity_IsbL-0030_RLatLon0.09_PT046H.grib2 2026-04-28 14:52 609K
20260428T12Z_MSC_RDPS_RelativeHumidity_IsbL-0050_RLatLon0.09_PT046H.grib2 2026-04-28 14:52 372K
20260428T12Z_MSC_RDPS_RelativeHumidity_IsbL-0100_RLatLon0.09_PT046H.grib2 2026-04-28 14:52 284K
20260428T12Z_MSC_RDPS_RelativeHumidity_IsbL-0150_RLatLon0.09_PT046H.grib2 2026-04-28 14:52 410K
20260428T12Z_MSC_RDPS_RelativeHumidity_IsbL-0175_RLatLon0.09_PT046H.grib2 2026-04-28 14:52 482K
20260428T12Z_MSC_RDPS_RelativeHumidity_IsbL-0200_RLatLon0.09_PT046H.grib2 2026-04-28 14:52 557K
20260428T12Z_MSC_RDPS_RelativeHumidity_IsbL-0225_RLatLon0.09_PT046H.grib2 2026-04-28 14:52 627K
20260428T12Z_MSC_RDPS_RelativeHumidity_IsbL-0250_RLatLon0.09_PT046H.grib2 2026-04-28 14:52 703K
20260428T12Z_MSC_RDPS_RelativeHumidity_IsbL-0275_RLatLon0.09_PT046H.grib2 2026-04-28 14:52 729K
20260428T12Z_MSC_RDPS_RelativeHumidity_IsbL-0300_RLatLon0.09_PT046H.grib2 2026-04-28 14:52 776K
20260428T12Z_MSC_RDPS_RelativeHumidity_IsbL-0350_RLatLon0.09_PT046H.grib2 2026-04-28 14:52 793K
20260428T12Z_MSC_RDPS_RelativeHumidity_IsbL-0400_RLatLon0.09_PT046H.grib2 2026-04-28 14:52 799K
20260428T12Z_MSC_RDPS_RelativeHumidity_IsbL-0450_RLatLon0.09_PT046H.grib2 2026-04-28 14:52 798K
20260428T12Z_MSC_RDPS_RelativeHumidity_IsbL-0500_RLatLon0.09_PT046H.grib2 2026-04-28 14:52 805K
20260428T12Z_MSC_RDPS_RelativeHumidity_IsbL-0550_RLatLon0.09_PT046H.grib2 2026-04-28 14:52 824K
20260428T12Z_MSC_RDPS_RelativeHumidity_IsbL-0600_RLatLon0.09_PT046H.grib2 2026-04-28 14:52 851K
20260428T12Z_MSC_RDPS_RelativeHumidity_IsbL-0650_RLatLon0.09_PT046H.grib2 2026-04-28 14:52 865K
20260428T12Z_MSC_RDPS_RelativeHumidity_IsbL-0700_RLatLon0.09_PT046H.grib2 2026-04-28 14:52 884K
20260428T12Z_MSC_RDPS_RelativeHumidity_IsbL-0750_RLatLon0.09_PT046H.grib2 2026-04-28 14:52 919K
20260428T12Z_MSC_RDPS_RelativeHumidity_IsbL-0800_RLatLon0.09_PT046H.grib2 2026-04-28 14:52 972K
20260428T12Z_MSC_RDPS_RelativeHumidity_IsbL-0850_RLatLon0.09_PT046H.grib2 2026-04-28 14:52 1.0M
20260428T12Z_MSC_RDPS_RelativeHumidity_IsbL-0875_RLatLon0.09_PT046H.grib2 2026-04-28 14:52 1.0M
20260428T12Z_MSC_RDPS_RelativeHumidity_IsbL-0900_RLatLon0.09_PT046H.grib2 2026-04-28 14:52 1.1M
20260428T12Z_MSC_RDPS_RelativeHumidity_IsbL-0925_RLatLon0.09_PT046H.grib2 2026-04-28 14:52 1.1M
20260428T12Z_MSC_RDPS_RelativeHumidity_IsbL-0950_RLatLon0.09_PT046H.grib2 2026-04-28 14:52 1.1M
20260428T12Z_MSC_RDPS_RelativeHumidity_IsbL-0970_RLatLon0.09_PT046H.grib2 2026-04-28 14:52 1.1M
20260428T12Z_MSC_RDPS_RelativeHumidity_IsbL-0985_RLatLon0.09_PT046H.grib2 2026-04-28 14:52 1.0M
20260428T12Z_MSC_RDPS_RelativeHumidity_IsbL-1000_RLatLon0.09_PT046H.grib2 2026-04-28 14:52 1.0M
20260428T12Z_MSC_RDPS_RelativeHumidity_IsbL-1015_RLatLon0.09_PT046H.grib2 2026-04-28 14:52 1.0M
20260428T12Z_MSC_RDPS_Runoff-Accum_Sfc_RLatLon0.09_PT046H.grib2 2026-04-28 14:52 68K
20260428T12Z_MSC_RDPS_SWEATIndex_Sfc_RLatLon0.09_PT046H.grib2 2026-04-28 14:52 2.4M
20260428T12Z_MSC_RDPS_SeeingIndex_EAtm_RLatLon0.09_PT046H.grib2 2026-04-28 14:52 1.0M
20260428T12Z_MSC_RDPS_SensibleHeatNetFlux_Sfc_RLatLon0.09_PT046H.grib2 2026-04-28 14:52 289K
20260428T12Z_MSC_RDPS_ShowalterIndex_IsbL-0500_RLatLon0.09_PT046H.grib2 2026-04-28 14:52 2.6M
20260428T12Z_MSC_RDPS_SkyTransparencyIndex_EAtm_RLatLon0.09_PT046H.grib2 2026-04-28 14:52 693K
20260428T12Z_MSC_RDPS_Snow-Accum1h_Sfc_RLatLon0.09_PT046H.grib2 2026-04-28 14:52 464K
20260428T12Z_MSC_RDPS_Snow-Accum_Sfc_RLatLon0.09_PT046H.grib2 2026-04-28 14:52 792K
20260428T12Z_MSC_RDPS_SnowDensity_Sfc_RLatLon0.09_PT046H.grib2 2026-04-28 14:52 181K
20260428T12Z_MSC_RDPS_SnowDepth_Sfc_RLatLon0.09_PT046H.grib2 2026-04-28 14:52 687K
20260428T12Z_MSC_RDPS_SoilTemp_DBS-0to10cm_RLatLon0.09_PT046H.grib2 2026-04-28 14:52 233K
20260428T12Z_MSC_RDPS_SoilTemp_Sfc_RLatLon0.09_PT046H.grib2 2026-04-28 14:52 273K
20260428T12Z_MSC_RDPS_SoilVolumetricIceContent_Sfc_RLatLon0.09_PT046H.grib2 2026-04-28 14:52 165K
20260428T12Z_MSC_RDPS_SoilVolumetricWaterContent_DBS-0to10cm_RLatLon0.09_PT046H.grib2 2026-04-28 14:52 267K
20260428T12Z_MSC_RDPS_SoilVolumetricWaterContent_DBS-0to1cm_RLatLon0.09_PT046H.grib2 2026-04-28 14:52 337K
20260428T12Z_MSC_RDPS_SpecificHumidity_AGL-120m_RLatLon0.09_PT046H.grib2 2026-04-28 14:52 485K
20260428T12Z_MSC_RDPS_SpecificHumidity_AGL-2m_RLatLon0.09_PT046H.grib2 2026-04-28 14:52 651K
20260428T12Z_MSC_RDPS_SpecificHumidity_AGL-40m_RLatLon0.09_PT046H.grib2 2026-04-28 14:52 490K
20260428T12Z_MSC_RDPS_SpecificHumidity_AGL-80m_RLatLon0.09_PT046H.grib2 2026-04-28 14:52 486K
20260428T12Z_MSC_RDPS_SpecificHumidity_IsbL-0001_RLatLon0.09_PT046H.grib2 2026-04-28 14:52 342K
20260428T12Z_MSC_RDPS_SpecificHumidity_IsbL-0005_RLatLon0.09_PT046H.grib2 2026-04-28 14:52 359K
20260428T12Z_MSC_RDPS_SpecificHumidity_IsbL-0010_RLatLon0.09_PT046H.grib2 2026-04-28 14:52 397K
20260428T12Z_MSC_RDPS_SpecificHumidity_IsbL-0020_RLatLon0.09_PT046H.grib2 2026-04-28 14:52 386K
20260428T12Z_MSC_RDPS_SpecificHumidity_IsbL-0030_RLatLon0.09_PT046H.grib2 2026-04-28 14:52 369K
20260428T12Z_MSC_RDPS_SpecificHumidity_IsbL-0050_RLatLon0.09_PT046H.grib2 2026-04-28 14:52 456K
20260428T12Z_MSC_RDPS_SpecificHumidity_IsbL-0100_RLatLon0.09_PT046H.grib2 2026-04-28 14:52 352K
20260428T12Z_MSC_RDPS_SpecificHumidity_IsbL-0150_RLatLon0.09_PT046H.grib2 2026-04-28 14:52 456K
20260428T12Z_MSC_RDPS_SpecificHumidity_IsbL-0175_RLatLon0.09_PT046H.grib2 2026-04-28 14:52 539K
20260428T12Z_MSC_RDPS_SpecificHumidity_IsbL-0200_RLatLon0.09_PT046H.grib2 2026-04-28 14:52 451K
20260428T12Z_MSC_RDPS_SpecificHumidity_IsbL-0225_RLatLon0.09_PT046H.grib2 2026-04-28 14:52 456K
20260428T12Z_MSC_RDPS_SpecificHumidity_IsbL-0250_RLatLon0.09_PT046H.grib2 2026-04-28 14:52 564K
20260428T12Z_MSC_RDPS_SpecificHumidity_IsbL-0275_RLatLon0.09_PT046H.grib2 2026-04-28 14:52 477K
20260428T12Z_MSC_RDPS_SpecificHumidity_IsbL-0300_RLatLon0.09_PT046H.grib2 2026-04-28 14:52 453K
20260428T12Z_MSC_RDPS_SpecificHumidity_IsbL-0350_RLatLon0.09_PT046H.grib2 2026-04-28 14:52 446K
20260428T12Z_MSC_RDPS_SpecificHumidity_IsbL-0400_RLatLon0.09_PT046H.grib2 2026-04-28 14:52 521K
20260428T12Z_MSC_RDPS_SpecificHumidity_IsbL-0450_RLatLon0.09_PT046H.grib2 2026-04-28 14:52 569K
20260428T12Z_MSC_RDPS_SpecificHumidity_IsbL-0500_RLatLon0.09_PT046H.grib2 2026-04-28 14:52 507K
20260428T12Z_MSC_RDPS_SpecificHumidity_IsbL-0550_RLatLon0.09_PT046H.grib2 2026-04-28 14:52 582K
20260428T12Z_MSC_RDPS_SpecificHumidity_IsbL-0600_RLatLon0.09_PT046H.grib2 2026-04-28 14:52 641K
20260428T12Z_MSC_RDPS_SpecificHumidity_IsbL-0650_RLatLon0.09_PT046H.grib2 2026-04-28 14:52 559K
20260428T12Z_MSC_RDPS_SpecificHumidity_IsbL-0700_RLatLon0.09_PT046H.grib2 2026-04-28 14:52 598K
20260428T12Z_MSC_RDPS_SpecificHumidity_IsbL-0750_RLatLon0.09_PT046H.grib2 2026-04-28 14:52 646K
20260428T12Z_MSC_RDPS_SpecificHumidity_IsbL-0800_RLatLon0.09_PT046H.grib2 2026-04-28 14:52 716K
20260428T12Z_MSC_RDPS_SpecificHumidity_IsbL-0850_RLatLon0.09_PT046H.grib2 2026-04-28 14:52 789K
20260428T12Z_MSC_RDPS_SpecificHumidity_IsbL-0875_RLatLon0.09_PT046H.grib2 2026-04-28 14:52 816K
20260428T12Z_MSC_RDPS_SpecificHumidity_IsbL-0900_RLatLon0.09_PT046H.grib2 2026-04-28 14:52 830K
20260428T12Z_MSC_RDPS_SpecificHumidity_IsbL-0925_RLatLon0.09_PT046H.grib2 2026-04-28 14:52 833K
20260428T12Z_MSC_RDPS_SpecificHumidity_IsbL-0950_RLatLon0.09_PT046H.grib2 2026-04-28 14:52 834K
20260428T12Z_MSC_RDPS_SpecificHumidity_IsbL-0970_RLatLon0.09_PT046H.grib2 2026-04-28 14:52 827K
20260428T12Z_MSC_RDPS_SpecificHumidity_IsbL-0985_RLatLon0.09_PT046H.grib2 2026-04-28 14:52 816K
20260428T12Z_MSC_RDPS_SpecificHumidity_IsbL-1000_RLatLon0.09_PT046H.grib2 2026-04-28 14:52 667K
20260428T12Z_MSC_RDPS_SpecificHumidity_IsbL-1015_RLatLon0.09_PT046H.grib2 2026-04-28 14:52 659K
20260428T12Z_MSC_RDPS_SpecificHumidity_Sfc_RLatLon0.09_PT046H.grib2 2026-04-28 14:52 291K
20260428T12Z_MSC_RDPS_StormRelativeHelicity_EtaL-10000_RLatLon0.09_PT046H.grib2 2026-04-28 14:52 1.1M
20260428T12Z_MSC_RDPS_StormSeverityIndex_EtaL-10000_RLatLon0.09_PT046H.grib2 2026-04-28 14:52 1.1M
20260428T12Z_MSC_RDPS_Thickness_IsbL-0850to0700_RLatLon0.09_PT046H.grib2 2026-04-28 14:52 177K
20260428T12Z_MSC_RDPS_Thickness_IsbL-1000to0500_RLatLon0.09_PT046H.grib2 2026-04-28 14:52 197K
20260428T12Z_MSC_RDPS_Thickness_IsbL-1000to0850_RLatLon0.09_PT046H.grib2 2026-04-28 14:52 260K
20260428T12Z_MSC_RDPS_TotalCloudCover_Sfc_RLatLon0.09_PT046H.grib2 2026-04-28 14:52 663K
20260428T12Z_MSC_RDPS_TotalTotalsIndex_Sfc_RLatLon0.09_PT046H.grib2 2026-04-28 14:52 2.4M
20260428T12Z_MSC_RDPS_UVIndex-ClearSky_Sfc_RLatLon0.09_PT046H.grib2 2026-04-28 14:52 133K
20260428T12Z_MSC_RDPS_UVIndex_Sfc_RLatLon0.09_PT046H.grib2 2026-04-28 14:52 249K
20260428T12Z_MSC_RDPS_UpwardLongwaveRadiationFlux_NTAtm_RLatLon0.09_PT046H.grib2 2026-04-28 14:52 492K
20260428T12Z_MSC_RDPS_UpwardShortwaveRadiationFlux_NTAtm_RLatLon0.09_PT046H.grib2 2026-04-28 14:52 193K
20260428T12Z_MSC_RDPS_VerticalVelocity_IsbL-0250_RLatLon0.09_PT046H.grib2 2026-04-28 14:52 558K
20260428T12Z_MSC_RDPS_VerticalVelocity_IsbL-0500_RLatLon0.09_PT046H.grib2 2026-04-28 14:52 544K
20260428T12Z_MSC_RDPS_VerticalVelocity_IsbL-0700_RLatLon0.09_PT046H.grib2 2026-04-28 14:52 587K
20260428T12Z_MSC_RDPS_VerticalVelocity_IsbL-0850_RLatLon0.09_PT046H.grib2 2026-04-28 14:52 636K
20260428T12Z_MSC_RDPS_VerticalWindShear_EtaL-6500_RLatLon0.09_PT046H.grib2 2026-04-28 14:52 1.2M
20260428T12Z_MSC_RDPS_WindChill_Sfc_RLatLon0.09_PT046H.grib2 2026-04-28 14:52 1.1M
20260428T12Z_MSC_RDPS_WindDir_AGL-10m_RLatLon0.09_PT046H.grib2 2026-04-28 14:52 1.0M
20260428T12Z_MSC_RDPS_WindDir_AGL-120m_RLatLon0.09_PT046H.grib2 2026-04-28 14:52 611K
20260428T12Z_MSC_RDPS_WindDir_AGL-40m_RLatLon0.09_PT046H.grib2 2026-04-28 14:52 642K
20260428T12Z_MSC_RDPS_WindDir_AGL-80m_RLatLon0.09_PT046H.grib2 2026-04-28 14:52 622K
20260428T12Z_MSC_RDPS_WindDir_IsbL-0001_RLatLon0.09_PT046H.grib2 2026-04-28 14:52 305K
20260428T12Z_MSC_RDPS_WindDir_IsbL-0005_RLatLon0.09_PT046H.grib2 2026-04-28 14:52 367K
20260428T12Z_MSC_RDPS_WindDir_IsbL-0010_RLatLon0.09_PT046H.grib2 2026-04-28 14:52 376K
20260428T12Z_MSC_RDPS_WindDir_IsbL-0020_RLatLon0.09_PT046H.grib2 2026-04-28 14:52 422K
20260428T12Z_MSC_RDPS_WindDir_IsbL-0030_RLatLon0.09_PT046H.grib2 2026-04-28 14:52 425K
20260428T12Z_MSC_RDPS_WindDir_IsbL-0050_RLatLon0.09_PT046H.grib2 2026-04-28 14:52 434K
20260428T12Z_MSC_RDPS_WindDir_IsbL-0100_RLatLon0.09_PT046H.grib2 2026-04-28 14:52 439K
20260428T12Z_MSC_RDPS_WindDir_IsbL-0150_RLatLon0.09_PT046H.grib2 2026-04-28 14:52 425K
20260428T12Z_MSC_RDPS_WindDir_IsbL-0175_RLatLon0.09_PT046H.grib2 2026-04-28 14:52 447K
20260428T12Z_MSC_RDPS_WindDir_IsbL-0200_RLatLon0.09_PT046H.grib2 2026-04-28 14:52 456K
20260428T12Z_MSC_RDPS_WindDir_IsbL-0225_RLatLon0.09_PT046H.grib2 2026-04-28 14:52 465K
20260428T12Z_MSC_RDPS_WindDir_IsbL-0250_RLatLon0.09_PT046H.grib2 2026-04-28 14:52 467K
20260428T12Z_MSC_RDPS_WindDir_IsbL-0275_RLatLon0.09_PT046H.grib2 2026-04-28 14:52 488K
20260428T12Z_MSC_RDPS_WindDir_IsbL-0300_RLatLon0.09_PT046H.grib2 2026-04-28 14:52 482K
20260428T12Z_MSC_RDPS_WindDir_IsbL-0350_RLatLon0.09_PT046H.grib2 2026-04-28 14:52 506K
20260428T12Z_MSC_RDPS_WindDir_IsbL-0400_RLatLon0.09_PT046H.grib2 2026-04-28 14:52 514K
20260428T12Z_MSC_RDPS_WindDir_IsbL-0450_RLatLon0.09_PT046H.grib2 2026-04-28 14:52 525K
20260428T12Z_MSC_RDPS_WindDir_IsbL-0500_RLatLon0.09_PT046H.grib2 2026-04-28 14:52 543K
20260428T12Z_MSC_RDPS_WindDir_IsbL-0550_RLatLon0.09_PT046H.grib2 2026-04-28 14:52 565K
20260428T12Z_MSC_RDPS_WindDir_IsbL-0600_RLatLon0.09_PT046H.grib2 2026-04-28 14:52 602K
20260428T12Z_MSC_RDPS_WindDir_IsbL-0650_RLatLon0.09_PT046H.grib2 2026-04-28 14:52 643K
20260428T12Z_MSC_RDPS_WindDir_IsbL-0700_RLatLon0.09_PT046H.grib2 2026-04-28 14:52 682K
20260428T12Z_MSC_RDPS_WindDir_IsbL-0750_RLatLon0.09_PT046H.grib2 2026-04-28 14:52 726K
20260428T12Z_MSC_RDPS_WindDir_IsbL-0800_RLatLon0.09_PT046H.grib2 2026-04-28 14:52 781K
20260428T12Z_MSC_RDPS_WindDir_IsbL-0850_RLatLon0.09_PT046H.grib2 2026-04-28 14:52 855K
20260428T12Z_MSC_RDPS_WindDir_IsbL-0875_RLatLon0.09_PT046H.grib2 2026-04-28 14:52 884K
20260428T12Z_MSC_RDPS_WindDir_IsbL-0900_RLatLon0.09_PT046H.grib2 2026-04-28 14:52 907K
20260428T12Z_MSC_RDPS_WindDir_IsbL-0925_RLatLon0.09_PT046H.grib2 2026-04-28 14:52 920K
20260428T12Z_MSC_RDPS_WindDir_IsbL-0950_RLatLon0.09_PT046H.grib2 2026-04-28 14:52 918K
20260428T12Z_MSC_RDPS_WindDir_IsbL-0970_RLatLon0.09_PT046H.grib2 2026-04-28 14:52 928K
20260428T12Z_MSC_RDPS_WindDir_IsbL-0985_RLatLon0.09_PT046H.grib2 2026-04-28 14:52 938K
20260428T12Z_MSC_RDPS_WindDir_IsbL-1000_RLatLon0.09_PT046H.grib2 2026-04-28 14:52 951K
20260428T12Z_MSC_RDPS_WindDir_IsbL-1015_RLatLon0.09_PT046H.grib2 2026-04-28 14:52 968K
20260428T12Z_MSC_RDPS_WindGust-Max_AGL-10m_RLatLon0.09_PT046H.grib2 2026-04-28 14:52 1.0M
20260428T12Z_MSC_RDPS_WindGust-Min_AGL-10m_RLatLon0.09_PT046H.grib2 2026-04-28 14:52 969K
20260428T12Z_MSC_RDPS_WindGust_AGL-10m_RLatLon0.09_PT046H.grib2 2026-04-28 14:52 1.0M
20260428T12Z_MSC_RDPS_WindSpeed_AGL-10m_RLatLon0.09_PT046H.grib2 2026-04-28 14:52 838K
20260428T12Z_MSC_RDPS_WindSpeed_AGL-120m_RLatLon0.09_PT046H.grib2 2026-04-28 14:52 550K
20260428T12Z_MSC_RDPS_WindSpeed_AGL-40m_RLatLon0.09_PT046H.grib2 2026-04-28 14:52 540K
20260428T12Z_MSC_RDPS_WindSpeed_AGL-80m_RLatLon0.09_PT046H.grib2 2026-04-28 14:52 539K
20260428T12Z_MSC_RDPS_WindSpeed_IsbL-0001_RLatLon0.09_PT046H.grib2 2026-04-28 14:52 333K
20260428T12Z_MSC_RDPS_WindSpeed_IsbL-0005_RLatLon0.09_PT046H.grib2 2026-04-28 14:52 298K
20260428T12Z_MSC_RDPS_WindSpeed_IsbL-0010_RLatLon0.09_PT046H.grib2 2026-04-28 14:52 403K
20260428T12Z_MSC_RDPS_WindSpeed_IsbL-0020_RLatLon0.09_PT046H.grib2 2026-04-28 14:52 329K
20260428T12Z_MSC_RDPS_WindSpeed_IsbL-0030_RLatLon0.09_PT046H.grib2 2026-04-28 14:52 328K
20260428T12Z_MSC_RDPS_WindSpeed_IsbL-0050_RLatLon0.09_PT046H.grib2 2026-04-28 14:52 354K
20260428T12Z_MSC_RDPS_WindSpeed_IsbL-0100_RLatLon0.09_PT046H.grib2 2026-04-28 14:52 483K
20260428T12Z_MSC_RDPS_WindSpeed_IsbL-0150_RLatLon0.09_PT046H.grib2 2026-04-28 14:52 386K
20260428T12Z_MSC_RDPS_WindSpeed_IsbL-0175_RLatLon0.09_PT046H.grib2 2026-04-28 14:52 432K
20260428T12Z_MSC_RDPS_WindSpeed_IsbL-0200_RLatLon0.09_PT046H.grib2 2026-04-28 14:52 448K
20260428T12Z_MSC_RDPS_WindSpeed_IsbL-0225_RLatLon0.09_PT046H.grib2 2026-04-28 14:52 454K
20260428T12Z_MSC_RDPS_WindSpeed_IsbL-0250_RLatLon0.09_PT046H.grib2 2026-04-28 14:52 457K
20260428T12Z_MSC_RDPS_WindSpeed_IsbL-0275_RLatLon0.09_PT046H.grib2 2026-04-28 14:52 475K
20260428T12Z_MSC_RDPS_WindSpeed_IsbL-0300_RLatLon0.09_PT046H.grib2 2026-04-28 14:52 472K
20260428T12Z_MSC_RDPS_WindSpeed_IsbL-0350_RLatLon0.09_PT046H.grib2 2026-04-28 14:52 485K
20260428T12Z_MSC_RDPS_WindSpeed_IsbL-0400_RLatLon0.09_PT046H.grib2 2026-04-28 14:52 466K
20260428T12Z_MSC_RDPS_WindSpeed_IsbL-0450_RLatLon0.09_PT046H.grib2 2026-04-28 14:52 465K
20260428T12Z_MSC_RDPS_WindSpeed_IsbL-0500_RLatLon0.09_PT046H.grib2 2026-04-28 14:52 466K
20260428T12Z_MSC_RDPS_WindSpeed_IsbL-0550_RLatLon0.09_PT046H.grib2 2026-04-28 14:52 465K
20260428T12Z_MSC_RDPS_WindSpeed_IsbL-0600_RLatLon0.09_PT046H.grib2 2026-04-28 14:52 473K
20260428T12Z_MSC_RDPS_WindSpeed_IsbL-0650_RLatLon0.09_PT046H.grib2 2026-04-28 14:52 612K
20260428T12Z_MSC_RDPS_WindSpeed_IsbL-0700_RLatLon0.09_PT046H.grib2 2026-04-28 14:52 636K
20260428T12Z_MSC_RDPS_WindSpeed_IsbL-0750_RLatLon0.09_PT046H.grib2 2026-04-28 14:52 708K
20260428T12Z_MSC_RDPS_WindSpeed_IsbL-0800_RLatLon0.09_PT046H.grib2 2026-04-28 14:52 750K
20260428T12Z_MSC_RDPS_WindSpeed_IsbL-0850_RLatLon0.09_PT046H.grib2 2026-04-28 14:52 808K
20260428T12Z_MSC_RDPS_WindSpeed_IsbL-0875_RLatLon0.09_PT046H.grib2 2026-04-28 14:52 829K
20260428T12Z_MSC_RDPS_WindSpeed_IsbL-0900_RLatLon0.09_PT046H.grib2 2026-04-28 14:52 846K
20260428T12Z_MSC_RDPS_WindSpeed_IsbL-0925_RLatLon0.09_PT046H.grib2 2026-04-28 14:52 858K
20260428T12Z_MSC_RDPS_WindSpeed_IsbL-0950_RLatLon0.09_PT046H.grib2 2026-04-28 14:52 860K
20260428T12Z_MSC_RDPS_WindSpeed_IsbL-0970_RLatLon0.09_PT046H.grib2 2026-04-28 14:52 861K
20260428T12Z_MSC_RDPS_WindSpeed_IsbL-0985_RLatLon0.09_PT046H.grib2 2026-04-28 14:52 852K
20260428T12Z_MSC_RDPS_WindSpeed_IsbL-1000_RLatLon0.09_PT046H.grib2 2026-04-28 14:52 845K
20260428T12Z_MSC_RDPS_WindSpeed_IsbL-1015_RLatLon0.09_PT046H.grib2 2026-04-28 14:52 836K
20260428T12Z_MSC_RDPS_WindU_AGL-10m_RLatLon0.09_PT046H.grib2 2026-04-28 14:52 430K
20260428T12Z_MSC_RDPS_WindU_AGL-120m_RLatLon0.09_PT046H.grib2 2026-04-28 14:52 535K
20260428T12Z_MSC_RDPS_WindU_AGL-40m_RLatLon0.09_PT046H.grib2 2026-04-28 14:52 538K
20260428T12Z_MSC_RDPS_WindU_AGL-80m_RLatLon0.09_PT046H.grib2 2026-04-28 14:52 537K
20260428T12Z_MSC_RDPS_WindU_IsbL-0001_RLatLon0.09_PT046H.grib2 2026-04-28 14:52 243K
20260428T12Z_MSC_RDPS_WindU_IsbL-0005_RLatLon0.09_PT046H.grib2 2026-04-28 14:52 289K
20260428T12Z_MSC_RDPS_WindU_IsbL-0010_RLatLon0.09_PT046H.grib2 2026-04-28 14:52 301K
20260428T12Z_MSC_RDPS_WindU_IsbL-0020_RLatLon0.09_PT046H.grib2 2026-04-28 14:52 355K
20260428T12Z_MSC_RDPS_WindU_IsbL-0030_RLatLon0.09_PT046H.grib2 2026-04-28 14:52 317K
20260428T12Z_MSC_RDPS_WindU_IsbL-0050_RLatLon0.09_PT046H.grib2 2026-04-28 14:52 347K
20260428T12Z_MSC_RDPS_WindU_IsbL-0100_RLatLon0.09_PT046H.grib2 2026-04-28 14:52 439K
20260428T12Z_MSC_RDPS_WindU_IsbL-0150_RLatLon0.09_PT046H.grib2 2026-04-28 14:52 401K
20260428T12Z_MSC_RDPS_WindU_IsbL-0175_RLatLon0.09_PT046H.grib2 2026-04-28 14:52 424K
20260428T12Z_MSC_RDPS_WindU_IsbL-0200_RLatLon0.09_PT046H.grib2 2026-04-28 14:52 341K
20260428T12Z_MSC_RDPS_WindU_IsbL-0225_RLatLon0.09_PT046H.grib2 2026-04-28 14:52 346K
20260428T12Z_MSC_RDPS_WindU_IsbL-0250_RLatLon0.09_PT046H.grib2 2026-04-28 14:52 346K
20260428T12Z_MSC_RDPS_WindU_IsbL-0275_RLatLon0.09_PT046H.grib2 2026-04-28 14:52 362K
20260428T12Z_MSC_RDPS_WindU_IsbL-0300_RLatLon0.09_PT046H.grib2 2026-04-28 14:52 357K
20260428T12Z_MSC_RDPS_WindU_IsbL-0350_RLatLon0.09_PT046H.grib2 2026-04-28 14:52 473K
20260428T12Z_MSC_RDPS_WindU_IsbL-0400_RLatLon0.09_PT046H.grib2 2026-04-28 14:52 471K
20260428T12Z_MSC_RDPS_WindU_IsbL-0450_RLatLon0.09_PT046H.grib2 2026-04-28 14:52 470K
20260428T12Z_MSC_RDPS_WindU_IsbL-0500_RLatLon0.09_PT046H.grib2 2026-04-28 14:52 472K
20260428T12Z_MSC_RDPS_WindU_IsbL-0550_RLatLon0.09_PT046H.grib2 2026-04-28 14:52 454K
20260428T12Z_MSC_RDPS_WindU_IsbL-0600_RLatLon0.09_PT046H.grib2 2026-04-28 14:52 463K
20260428T12Z_MSC_RDPS_WindU_IsbL-0650_RLatLon0.09_PT046H.grib2 2026-04-28 14:52 482K
20260428T12Z_MSC_RDPS_WindU_IsbL-0700_RLatLon0.09_PT046H.grib2 2026-04-28 14:52 503K
20260428T12Z_MSC_RDPS_WindU_IsbL-0750_RLatLon0.09_PT046H.grib2 2026-04-28 14:52 529K
20260428T12Z_MSC_RDPS_WindU_IsbL-0800_RLatLon0.09_PT046H.grib2 2026-04-28 14:52 566K
20260428T12Z_MSC_RDPS_WindU_IsbL-0850_RLatLon0.09_PT046H.grib2 2026-04-28 14:52 617K
20260428T12Z_MSC_RDPS_WindU_IsbL-0875_RLatLon0.09_PT046H.grib2 2026-04-28 14:52 635K
20260428T12Z_MSC_RDPS_WindU_IsbL-0900_RLatLon0.09_PT046H.grib2 2026-04-28 14:52 648K
20260428T12Z_MSC_RDPS_WindU_IsbL-0925_RLatLon0.09_PT046H.grib2 2026-04-28 14:52 656K
20260428T12Z_MSC_RDPS_WindU_IsbL-0950_RLatLon0.09_PT046H.grib2 2026-04-28 14:52 654K
20260428T12Z_MSC_RDPS_WindU_IsbL-0970_RLatLon0.09_PT046H.grib2 2026-04-28 14:52 653K
20260428T12Z_MSC_RDPS_WindU_IsbL-0985_RLatLon0.09_PT046H.grib2 2026-04-28 14:52 788K
20260428T12Z_MSC_RDPS_WindU_IsbL-1000_RLatLon0.09_PT046H.grib2 2026-04-28 14:52 783K
20260428T12Z_MSC_RDPS_WindU_IsbL-1015_RLatLon0.09_PT046H.grib2 2026-04-28 14:52 776K
20260428T12Z_MSC_RDPS_WindV_AGL-10m_RLatLon0.09_PT046H.grib2 2026-04-28 14:52 430K
20260428T12Z_MSC_RDPS_WindV_AGL-120m_RLatLon0.09_PT046H.grib2 2026-04-28 14:52 533K
20260428T12Z_MSC_RDPS_WindV_AGL-40m_RLatLon0.09_PT046H.grib2 2026-04-28 14:52 535K
20260428T12Z_MSC_RDPS_WindV_AGL-80m_RLatLon0.09_PT046H.grib2 2026-04-28 14:52 534K
20260428T12Z_MSC_RDPS_WindV_IsbL-0001_RLatLon0.09_PT046H.grib2 2026-04-28 14:52 246K
20260428T12Z_MSC_RDPS_WindV_IsbL-0005_RLatLon0.09_PT046H.grib2 2026-04-28 14:52 290K
20260428T12Z_MSC_RDPS_WindV_IsbL-0010_RLatLon0.09_PT046H.grib2 2026-04-28 14:52 305K
20260428T12Z_MSC_RDPS_WindV_IsbL-0020_RLatLon0.09_PT046H.grib2 2026-04-28 14:52 321K
20260428T12Z_MSC_RDPS_WindV_IsbL-0030_RLatLon0.09_PT046H.grib2 2026-04-28 14:52 322K
20260428T12Z_MSC_RDPS_WindV_IsbL-0050_RLatLon0.09_PT046H.grib2 2026-04-28 14:52 348K
20260428T12Z_MSC_RDPS_WindV_IsbL-0100_RLatLon0.09_PT046H.grib2 2026-04-28 14:52 435K
20260428T12Z_MSC_RDPS_WindV_IsbL-0150_RLatLon0.09_PT046H.grib2 2026-04-28 14:52 400K
20260428T12Z_MSC_RDPS_WindV_IsbL-0175_RLatLon0.09_PT046H.grib2 2026-04-28 14:52 423K
20260428T12Z_MSC_RDPS_WindV_IsbL-0200_RLatLon0.09_PT046H.grib2 2026-04-28 14:52 338K
20260428T12Z_MSC_RDPS_WindV_IsbL-0225_RLatLon0.09_PT046H.grib2 2026-04-28 14:52 343K
20260428T12Z_MSC_RDPS_WindV_IsbL-0250_RLatLon0.09_PT046H.grib2 2026-04-28 14:52 345K
20260428T12Z_MSC_RDPS_WindV_IsbL-0275_RLatLon0.09_PT046H.grib2 2026-04-28 14:52 359K
20260428T12Z_MSC_RDPS_WindV_IsbL-0300_RLatLon0.09_PT046H.grib2 2026-04-28 14:52 355K
20260428T12Z_MSC_RDPS_WindV_IsbL-0350_RLatLon0.09_PT046H.grib2 2026-04-28 14:52 365K
20260428T12Z_MSC_RDPS_WindV_IsbL-0400_RLatLon0.09_PT046H.grib2 2026-04-28 14:52 468K
20260428T12Z_MSC_RDPS_WindV_IsbL-0450_RLatLon0.09_PT046H.grib2 2026-04-28 14:52 468K
20260428T12Z_MSC_RDPS_WindV_IsbL-0500_RLatLon0.09_PT046H.grib2 2026-04-28 14:52 470K
20260428T12Z_MSC_RDPS_WindV_IsbL-0550_RLatLon0.09_PT046H.grib2 2026-04-28 14:52 469K
20260428T12Z_MSC_RDPS_WindV_IsbL-0600_RLatLon0.09_PT046H.grib2 2026-04-28 14:52 477K
20260428T12Z_MSC_RDPS_WindV_IsbL-0650_RLatLon0.09_PT046H.grib2 2026-04-28 14:52 479K
20260428T12Z_MSC_RDPS_WindV_IsbL-0700_RLatLon0.09_PT046H.grib2 2026-04-28 14:52 500K
20260428T12Z_MSC_RDPS_WindV_IsbL-0750_RLatLon0.09_PT046H.grib2 2026-04-28 14:52 524K
20260428T12Z_MSC_RDPS_WindV_IsbL-0800_RLatLon0.09_PT046H.grib2 2026-04-28 14:52 690K
20260428T12Z_MSC_RDPS_WindV_IsbL-0850_RLatLon0.09_PT046H.grib2 2026-04-28 14:52 746K
20260428T12Z_MSC_RDPS_WindV_IsbL-0875_RLatLon0.09_PT046H.grib2 2026-04-28 14:52 632K
20260428T12Z_MSC_RDPS_WindV_IsbL-0900_RLatLon0.09_PT046H.grib2 2026-04-28 14:52 784K
20260428T12Z_MSC_RDPS_WindV_IsbL-0925_RLatLon0.09_PT046H.grib2 2026-04-28 14:52 795K
20260428T12Z_MSC_RDPS_WindV_IsbL-0950_RLatLon0.09_PT046H.grib2 2026-04-28 14:52 793K
20260428T12Z_MSC_RDPS_WindV_IsbL-0970_RLatLon0.09_PT046H.grib2 2026-04-28 14:52 793K
20260428T12Z_MSC_RDPS_WindV_IsbL-0985_RLatLon0.09_PT046H.grib2 2026-04-28 14:52 835K
20260428T12Z_MSC_RDPS_WindV_IsbL-1000_RLatLon0.09_PT046H.grib2 2026-04-28 14:52 827K
20260428T12Z_MSC_RDPS_WindV_IsbL-1015_RLatLon0.09_PT046H.grib2 2026-04-28 14:52 820K